User: anonymous   Login
Location: Unspecified
(0.0000°N, 0.0000°E)
Time: 01:31:02
(UTC+00:00)
Language:

Cosmos 2353 - Orbit

View from above orbital plane
View from above orbital plane
View from above satellite
View from above satellite

Ground track
Ground track

The orbit data is extracted from the following two-line orbital elements,

1 25364U 98036B   18016.90577677 -.00000004 +00000-0 -10535-3 0  9993
2 25364 082.5898 000.4696 0355669 183.2984 176.5736 12.21795519873719
Epoch (UTC): 16 January 2018 21:44:19
Eccentricity: 0.0355669
inclination: 82.5898°
perigee height: 1301 km
apogee height: 1868 km
right ascension of ascending node: 0.4696°
argument of perigee: 183.2984°
revolutions per day: 12.21795519
mean anomaly at epoch: 176.5736°
orbit number at epoch: 87371

The dashed part of the orbit path shows where the satellite is in the earth's shadow,  

DLR